Location: Hopewell Observatory
(38.8698°N, 77.6988°W)
Time: 04:37:51
(UTC-04:00)

Amateur Radio Satellites - All Passes

Search period start: 23 October 2014 04:07
Search period end: 24 October 2014 04:07
Location: Hopewell Observatory, 38.8698°N, 77.6988°W

Satellite Date Start Highest point End Downlink Frequencies (MHz)
Time Altitude Azimuth
AO-27 23 Oct 04:11:13 04:16:06 41° 290° (WNW) 04:20:57 436.795 MHz FM
Sapphire 23 Oct 04:42:36 04:47:58 73° 115° (ESE) 04:53:23 437.095 MHz 1200 baud AX-25 AFSK
AO-Echo 23 Oct 04:57:43 05:00:03 13° 299° (WNW) 05:02:23 ?
JAS-1B 23 Oct 04:58:21 05:02:12 16° 299° (WNW) 05:06:24 435.800 - 435.900 CW/SSB
Uosat F 23 Oct 05:00:14 05:04:43 31° 97° (E) 05:09:10 435.120 FM
Uribyol 2 23 Oct 05:01:42 05:04:27 15° 299° (WNW) 05:07:10 436.500 FM
PCSat 23 Oct 05:05:25 05:10:47 67° 300° (WNW) 05:16:12 145.825 MHz
ITAMSAT 1 23 Oct 05:07:21 05:09:55 14° 299° (WNW) 05:12:28 435.822 SSB
Gurwin Techsat 1B 23 Oct 05:14:06 05:18:06 22° 295° (WNW) 05:22:06 435.225 FM
JAS-2 23 Oct 05:17:16 05:22:33 19° 89° (E) 05:27:48 435.800 - 435.900 CW/SSB, 435.910 FM
AO-7 23 Oct 05:25:56 05:34:14 67° 105° (ESE) 05:42:30 29.400 - 29.500 MHz
TMSAT-1 23 Oct 05:26:38 05:30:41 23° 295° (WNW) 05:34:44 436.925 FM
OPAL 23 Oct 05:38:18 05:43:27 76° 255° (WSW) 05:48:35 ?
RS-15 23 Oct 05:39:17 05:47:51 24° 28° (NNE) 05:56:36 29.354 - 29.394 USB, Beacon 29.352 USB
STRAND 1 23 Oct 05:44:16 05:46:17 12° 60° (ENE) 05:48:19 ?
Hamsat 23 Oct 05:55:44 05:57:53 14° 92° (E) 06:00:03 145.90 MHz
Sapphire 23 Oct 06:28:21 06:31:58 18° 314° (NW) 06:35:37 437.095 MHz 1200 baud AX-25 AFSK
Uosat F 23 Oct 06:39:06 06:43:23 29° 293° (WNW) 06:47:40 435.120 FM
PCSat 23 Oct 06:53:26 06:55:15 12° 320° (NW) 06:57:05 145.825 MHz
JAS-2 23 Oct 07:00:25 07:08:12 83° 285° (WNW) 07:16:02 435.800 - 435.900 CW/SSB, 435.910 FM
STRAND 1 23 Oct 07:19:38 07:24:45 81° 257° (WSW) 07:29:56 ?
AO-7 23 Oct 07:19:42 07:26:22 28° 303° (WNW) 07:33:03 29.400 - 29.500 MHz
Hamsat 23 Oct 07:30:03 07:34:03 44° 287° (WNW) 07:38:03 145.90 MHz
RS-15 23 Oct 07:51:27 08:02:38 71° 56° (NE) 08:14:17 29.354 - 29.394 USB, Beacon 29.352 USB
Saudisat 1A 23 Oct 08:26:58 08:31:20 79° 120° (ESE) 08:35:45 436.775 MHz
SO-67 23 Oct 08:28:42 08:32:07 63° 284° (WNW) 08:35:31 435.3500 MHz FM
PANSAT 23 Oct 08:38:28 08:39:59 12° 166° (SSE) 08:41:31 not established
JAS-2 23 Oct 08:47:25 08:52:07 18° 302° (WNW) 08:56:53 435.800 - 435.900 CW/SSB, 435.910 FM
Oscar 11 23 Oct 09:41:37 09:41:56 10° 90° (E) 09:42:15 145.825 FM, Beacon 2401.500 USB
HO-68 23 Oct 10:03:22 10:10:31 63° 103° (ESE) 10:17:36 435.675 MHz FM
RS-15 23 Oct 10:04:51 10:14:08 31° 255° (WSW) 10:23:47 29.354 - 29.394 USB, Beacon 29.352 USB
Saudisat 1A 23 Oct 10:09:15 10:11:28 14° 318° (NW) 10:13:41 436.775 MHz
PANSAT 23 Oct 10:16:54 10:19:28 17° 179° (S) 10:22:02 not established
MaSat-1 23 Oct 10:18:38 10:21:15 84° 247° (WSW) 10:23:39 437.345 MHz
ZACube-1 23 Oct 10:24:14 10:26:13 13° 91° (E) 10:28:11 437.345 MHz
UKube-1 23 Oct 10:31:09 10:35:19 43° 99° (E) 10:39:28 145.840 MHz, 145.915 MHz
FUNcube-1 23 Oct 11:07:44 11:11:47 41° 98° (E) 11:15:44 145.950 - 145.970 MHz USB
Oscar 11 23 Oct 11:14:15 11:18:30 63° 285° (WNW) 11:22:45 145.825 FM, Beacon 2401.500 USB
HO-68 23 Oct 11:52:03 11:57:39 25° 300° (WNW) 12:03:13 435.675 MHz FM
PANSAT 23 Oct 11:57:05 11:58:57 13° 192° (SSW) 12:00:49 not established
ZACube-1 23 Oct 11:58:48 12:02:54 47° 287° (WNW) 12:06:55 437.345 MHz
UKube-1 23 Oct 12:08:24 12:11:09 17° 295° (WNW) 12:13:53 145.840 MHz, 145.915 MHz
PCSat 23 Oct 12:13:20 12:15:39 13° 41° (NE) 12:17:57 145.825 MHz
KITSAT 1 23 Oct 12:23:46 12:31:25 49° 111° (ESE) 12:39:04 435.175 FM
ISS 23 Oct 12:25:07 12:26:29 12° 128° (SE) 12:27:51 145.800 FM
Oscar 16 23 Oct 12:43:12 12:46:39 18° 64° (ENE) 12:50:06 437.025 USB, Beacon 2401.1428
FUNcube-1 23 Oct 12:45:15 12:47:47 16° 295° (WNW) 12:50:18 145.950 - 145.970 MHz USB
AO-Echo 23 Oct 12:54:41 12:55:21 10° 59° (ENE) 12:56:01 ?
Uribyol 2 23 Oct 13:01:47 13:03:29 12° 59° (ENE) 13:05:11 436.500 FM
ITAMSAT 1 23 Oct 13:07:02 13:09:03 12° 60° (ENE) 13:11:04 435.822 SSB
Sapphire 23 Oct 13:31:58 13:37:10 44° 56° (ENE) 13:42:19 437.095 MHz 1200 baud AX-25 AFSK
Oscar 19 23 Oct 13:35:02 13:40:03 55° 72° (ENE) 13:45:04 437.125 CW, 437.150 USB
SO-50 23 Oct 13:40:59 13:45:26 75° 119° (ESE) 13:50:02 436.795 FM
AO-27 23 Oct 13:49:14 13:53:46 31° 68° (ENE) 13:58:20 436.795 MHz FM
JAS-1B 23 Oct 13:50:56 13:56:57 63° 73° (ENE) 14:02:33 435.800 - 435.900 CW/SSB
PCSat 23 Oct 13:54:34 14:00:01 74° 61° (ENE) 14:05:25 145.825 MHz
ISS 23 Oct 13:59:27 14:02:46 66° 323° (NW) 14:06:05 145.800 FM
Oscar 10/S400 23 Oct 14:11:34 14:29:56 42° 154° (SSE) 14:53:09 145.825 - 145.975 CW/USB, Beacon 145.810 USB
KITSAT 1 23 Oct 14:19:29 14:26:55 39° 310° (NW) 14:34:25 435.175 FM
Oscar 16 23 Oct 14:20:31 14:25:33 53° 260° (W) 14:30:37 437.025 USB, Beacon 2401.1428
AO-Echo 23 Oct 14:28:25 14:33:16 90° 256° (WSW) 14:38:18 ?
AO-7 23 Oct 14:35:09 14:40:02 17° 51° (NE) 14:44:55 29.400 - 29.500 MHz
Uribyol 2 23 Oct 14:36:57 14:42:10 88° 256° (WSW) 14:47:26 436.500 FM
ITAMSAT 1 23 Oct 14:42:35 14:47:47 84° 256° (WSW) 14:53:03 435.822 SSB
Gurwin Techsat 1B 23 Oct 14:53:10 14:58:24 64° 73° (ENE) 15:03:39 435.225 FM
TMSAT-1 23 Oct 15:05:28 15:10:40 61° 73° (ENE) 15:15:54 436.925 FM
UOSAT-12 23 Oct 15:13:10 15:17:42 59° 118° (ESE) 15:22:20 437.025 FM, 437.400 FM
Sapphire 23 Oct 15:16:00 15:20:17 24° 253° (WSW) 15:24:33 437.095 MHz 1200 baud AX-25 AFSK
Oscar 19 23 Oct 15:16:29 15:19:42 17° 268° (W) 15:22:55 437.125 CW, 437.150 USB
SO-50 23 Oct 15:23:55 15:26:33 15° 318° (NW) 15:29:13 436.795 FM
AO-27 23 Oct 15:28:41 15:33:13 30° 264° (W) 15:37:47 436.795 MHz FM
ISS 23 Oct 15:38:01 15:39:59 15° 341° (NNW) 15:41:57 145.800 FM
PCSat 23 Oct 15:40:09 15:42:44 14° 257° (WSW) 15:45:18 145.825 MHz
JAS-1B 23 Oct 15:44:46 15:48:03 15° 267° (W) 15:51:14 435.800 - 435.900 CW/SSB
Uosat F 23 Oct 16:12:15 16:16:52 38° 70° (ENE) 16:21:31 435.120 FM
KITSAT 1 23 Oct 16:22:16 16:25:02 12° 336° (NNW) 16:27:47 435.175 FM
AO-7 23 Oct 16:23:16 16:31:31 79° 70° (ENE) 16:39:49 29.400 - 29.500 MHz
Gurwin Techsat 1B 23 Oct 16:35:52 16:38:47 15° 269° (W) 16:41:42 435.225 FM
TMSAT-1 23 Oct 16:47:54 16:50:58 15° 269° (W) 16:54:03 436.925 FM
Saudisat 1A 23 Oct 16:54:53 16:59:07 43° 54° (NE) 17:03:19 436.775 MHz
UOSAT-12 23 Oct 16:54:56 16:58:14 19° 316° (NW) 17:01:33 437.025 FM, 437.400 FM
JAS-2 23 Oct 17:11:48 17:17:08 37° 66° (ENE) 17:23:06 435.800 - 435.900 CW/SSB, 435.910 FM
OPAL 23 Oct 17:49:57 17:54:18 30° 99° (E) 17:58:37 ?
Uosat F 23 Oct 17:51:50 17:55:44 23° 265° (W) 17:59:41 435.120 FM
AO-7 23 Oct 18:19:19 18:25:03 20° 267° (W) 18:30:49 29.400 - 29.500 MHz
Hamsat 23 Oct 18:21:37 18:25:50 76° 259° (WSW) 18:30:02 145.90 MHz
Saudisat 1A 23 Oct 18:35:18 18:38:21 18° 250° (WSW) 18:41:23 436.775 MHz
ISS 23 Oct 18:53:18 18:55:39 18° 22° (NNE) 18:58:01 145.800 FM
JAS-2 23 Oct 18:57:08 19:02:14 32° 267° (W) 19:07:57 435.800 - 435.900 CW/SSB, 435.910 FM
SO-67 23 Oct 19:00:09 19:03:11 30° 73° (ENE) 19:06:14 435.3500 MHz FM
OPAL 23 Oct 19:28:51 19:33:06 29° 294° (WNW) 19:37:19 ?
STRAND 1 23 Oct 19:31:47 19:36:34 38° 98° (E) 19:41:19 ?
AO-40 23 Oct 20:14:28 23:15:32 26° 119° (ESE) 00:34:42 Beacon 2401.320
KITSAT 1 23 Oct 20:18:36 20:24:36 22° 39° (NE) 20:30:35 435.175 FM
ISS 23 Oct 20:29:22 20:32:42 81° 220° (SW) 20:36:02 145.800 FM
HO-68 23 Oct 20:30:36 20:37:11 42° 65° (ENE) 20:43:48 435.675 MHz FM
SO-67 23 Oct 20:34:36 20:36:14 13° 268° (W) 20:37:53 435.3500 MHz FM
STRAND 1 23 Oct 21:11:24 21:15:32 25° 294° (WNW) 21:19:39 ?
ZACube-1 23 Oct 21:20:35 21:22:00 11° 63° (ENE) 21:23:24 437.345 MHz
UKube-1 23 Oct 21:25:29 21:29:21 32° 70° (ENE) 21:33:15 145.840 MHz, 145.915 MHz
FUNcube-1 23 Oct 22:02:39 22:06:41 31° 70° (ENE) 22:10:41 145.950 - 145.970 MHz USB
Oscar 11 23 Oct 22:07:39 22:11:59 85° 77° (ENE) 22:16:19 145.825 FM, Beacon 2401.500 USB
KITSAT 1 23 Oct 22:13:06 22:21:13 85° 61° (ENE) 22:29:18 435.175 FM
RS-15 23 Oct 22:13:31 22:23:58 51° 111° (ESE) 22:34:16 29.354 - 29.394 USB, Beacon 29.352 USB
SO-50 23 Oct 22:13:40 22:18:22 49° 54° (NE) 22:23:06 436.795 FM
HO-68 23 Oct 22:18:25 22:24:52 36° 262° (W) 22:31:24 435.675 MHz FM
ZACube-1 23 Oct 22:53:11 22:57:47 73° 258° (WSW) 23:02:21 437.345 MHz
UKube-1 23 Oct 23:02:19 23:05:34 21° 265° (W) 23:08:51 145.840 MHz, 145.915 MHz
FUNcube-1 23 Oct 23:39:21 23:43:02 24° 265° (W) 23:46:42 145.950 - 145.970 MHz USB
UOSAT-12 23 Oct 23:44:07 23:48:30 36° 52° (NE) 23:52:48 437.025 FM, 437.400 FM
MaSat-1 23 Oct 23:53:50 23:57:43 36° 110° (ESE) 00:01:19 437.345 MHz
SO-50 23 Oct 23:55:07 23:58:35 20° 250° (WSW) 00:02:03 436.795 FM
KITSAT 1 24 Oct 00:10:28 00:15:35 19° 258° (WSW) 00:20:42 435.175 FM
RS-15 24 Oct 00:25:55 00:36:21 47° 313° (NW) 00:46:49 29.354 - 29.394 USB, Beacon 29.352 USB
UOSAT-12 24 Oct 01:24:39 01:28:27 25° 249° (WSW) 01:32:11 437.025 FM, 437.400 FM
MaSat-1 24 Oct 01:30:33 01:33:26 18° 303° (WNW) 01:36:09 437.345 MHz
JAS-1B 24 Oct 01:35:27 01:40:19 20° 95° (E) 01:45:41 435.800 - 435.900 CW/SSB
Oscar 19 24 Oct 01:48:43 01:52:33 21° 94° (E) 01:56:22 437.125 CW, 437.150 USB
AO-27 24 Oct 02:05:35 02:07:21 12° 90° (E) 02:09:07 436.795 MHz FM
Oscar 16 24 Oct 02:33:23 02:38:27 60° 101° (E) 02:43:29 437.025 USB, Beacon 2401.1428
AO-Echo 24 Oct 02:36:59 02:41:48 34° 97° (E) 02:46:35 ?
RS-15 24 Oct 02:45:23 02:52:30 19° 344° (NNW) 02:59:41 29.354 - 29.394 USB, Beacon 29.352 USB
Uribyol 2 24 Oct 02:51:19 02:56:07 36° 98° (E) 03:00:52 436.500 FM
ITAMSAT 1 24 Oct 02:57:02 03:01:55 39° 98° (E) 03:06:44 435.822 SSB
PCSat 24 Oct 02:57:04 02:57:39 10° 101° (E) 02:58:14 145.825 MHz
Gurwin Techsat 1B 24 Oct 03:11:10 03:15:42 28° 96° (E) 03:20:12 435.225 FM
TMSAT-1 24 Oct 03:23:08 03:27:34 27° 95° (E) 03:31:59 436.925 FM
JAS-1B 24 Oct 03:24:32 03:31:09 71° 287° (WNW) 03:39:05 435.800 - 435.900 CW/SSB
Oscar 19 24 Oct 03:27:14 03:32:03 42° 289° (WNW) 03:36:50 437.125 CW, 437.150 USB
AO-27 24 Oct 03:42:10 03:47:24 77° 285° (WNW) 03:52:36 436.795 MHz FM
